Regional Weather Roundup
Issued by NWS

Home | Current Version | Previous Version | Text Only | Print | Product List | Glossary Off
Versions: 1 2 3 4 5 6 7 8 9 10 11 12 13 14 15 16 17 18 19 20 21 22 23 24 25 26 27 28 29 30 31 32 33 34 35 36 37 38 39 40 41 42 43 44 45 46 47 48 49 50

183
ASUS43 KMKX 291400
RWRWI

WISCONSIN REGIONAL WEATHER ROUNDUP
NATIONAL WEATHER SERVICE MILWAUKEE/SULLIVAN WI
900 AM CDT FRI APR 29 2016

NOTE: "FAIR" INDICATES FEW OR NO CLOUDS BELOW 12,000 FEET WITH NO
SIGNIFICANT WEATHER AND/OR OBSTRUCTIONS TO VISIBILITY.

WIZ001-002-006>008-014>016-023>028-291500-
NORTHWEST WISCONSIN

CITY           SKY/WX    TMP DP  RH WIND       PRES   REMARKS
SUPERIOR ARPT  SUNNY     41  30  64 NE3       30.21R
ASHLAND        SUNNY     42  33  70 NE6       30.20R
HAYWARD        SUNNY     41  29  62 NE5       30.18R
SIREN          SUNNY     41  29  63 E7        30.19R
CUMBERLAND     SUNNY     37  30  75 CALM      30.17R
RICE LAKE      SUNNY     39  31  71 NW3       30.18S
CHETEK         SUNNY     40  31  70 N3        30.17R
LADYSMITH      SUNNY     43  33  68 CALM      30.16S
EAU CLAIRE     CLOUDY    43  38  82 W3        30.16R
MENOMONIE      MOSUNNY   43  43 100 W9        30.18R
NEW RICHMOND   CLOUDY    39  37  94 CALM      30.19R
OSCEOLA        MOSUNNY   39  38  95 CALM      30.22R
$$

WIZ003>005-009-010-017-018-291500-
NORTH CENTRAL WISCONSIN

CITY           SKY/WX    TMP DP  RH WIND       PRES   REMARKS
MANITOWISH WTR PTSUNNY   41  34  76 NW3       30.14S
ARBOR VITAE    MOSUNNY   43  35  75 NW3       30.14R
WOODRUFF       MOSUNNY   43  35  75 NW3       30.14R
RHINELANDER    CLOUDY    42  36  79 VRB6      30.15R
EAGLE RIVER    MOSUNNY   41  32  70 N7        30.14S
LAND O LAKES   PTSUNNY   42  34  74 CALM      30.15S
PHILLIPS       CLOUDY    40  35  84 CALM      30.14S
TOMAHAWK       CLOUDY    41  38  88 NE5       30.15S
MEDFORD        CLOUDY    40  38  92 NE7       30.13S
MERRILL        NOT AVBL
$$

WIZ029-030-035-036-043>047-291500-
CENTRAL WISCONSIN

CITY           SKY/WX    TMP DP  RH WIND       PRES   REMARKS
WAUSAU         CLOUDY    44  36  73 NE7       30.12F
MOSINEE        CLOUDY    41  37  87 N9        30.14F
MARSHFIELD     CLOUDY    44  37  76 NE8       30.13S
STEVENS POINT  CLOUDY    39  36  88 NE7       30.15S WCI  34
WAUPACA        CLOUDY    43  36  76 N3        30.14S
WAUTOMA        NOT AVBL
WISC RAPIDS    CLOUDY    44  36  73 NE10      30.14F
CAMP DOUGLAS   NOT AVBL
$$

WIZ011>013-019>022-031-037>040-048>050-291500-
NORTHEAST WISCONSIN

CITY           SKY/WX    TMP DP  RH WIND       PRES   REMARKS
ANTIGO         CLOUDY    40  36  88 N8        30.14S WCI  34
SHAWANO        CLOUDY    45  37  74 NE7       30.14F
OCONTO         CLOUDY    42  31  65 NE5       30.14S
STURGEON BAY   CLOUDY    43  32  65 N8        30.16S
GREEN BAY      CLOUDY    45  35  68 NE14      30.13F
MANITOWOC      NOT AVBL
APPLETON       CLOUDY    43  32  65 N12       30.11S
CLINTONVILLE   CLOUDY    43  34  70 N7        30.14S
OSHKOSH        CLOUDY    43  34  70 NE10      30.11F
$$

WIZ032>034-041-042-053>061-291500-
SOUTHWEST WISCONSIN

CITY           SKY/WX    TMP DP  RH WIND       PRES   REMARKS
LA CROSSE      CLOUDY    44  37  76 N9        30.16R
SPARTA         CLOUDY    41  38  92 NW3       30.16R
VIROQUA        CLOUDY    40  38  93 N9        30.12S WCI  34
BOSCOBEL       CLOUDY    45  39  79 NE6       30.14R
PRAIRIE DU CHI PTSUNNY   42  35  76 N8        30.13R
PLATTEVILLE    CLOUDY    40  39  97 N10       30.10F WCI  34
$$

WIZ056-057-062-063-064-067-068-291500-
SOUTH CENTRAL WISCONSIN

CITY           SKY/WX    TMP DP  RH WIND       PRES   REMARKS
REEDSBURG      CLOUDY    40  38  90 N7        30.11F
BARABOO/DELLS  CLOUDY    41  37  87 NE6       30.11F
LONE ROCK      CLOUDY    43  38  82 N7        30.12F
MINERAL POINT  CLOUDY    41  39  93 N9        30.10S
MADISON        PTSUNNY   43  38  82 N10       30.09F
MIDDLETON      CLOUDY    43  38  85 NE9       30.10F
WATERTOWN      CLOUDY    42  40  93 N7        30.10F
MONROE         CLOUDY    41  37  87 N7        30.08F
JANESVILLE     PTSUNNY   45  39  81 N7        30.08F
$$

WIZ051-052-058>065-066-070>072-291500-
SOUTHEAST WISCONSIN

CITY           SKY/WX    TMP DP  RH WIND       PRES   REMARKS
MILWAUKEE      CLOUDY    41  37  86 NE8       30.10S
WAUKESHA       CLOUDY    39  37  93 N6        30.10F WCI  35
MILWAUKEE/TIMM CLOUDY    41  36  81 N9        30.11F
RACINE         CLOUDY    43  38  82 N13       30.10F
BURLINGTON     CLOUDY    41  38  89 N9        30.09S
KENOSHA        CLOUDY    42  38  85 N8        30.08F
FOND DU LAC    CLOUDY    43  35  73 NE10      30.11F
SHEBOYGAN      CLOUDY    41  36  82 N7        30.12S
WEST BEND      CLOUDY    39  36  87 NE9       30.10F WCI  33
JUNEAU         CLOUDY    40  36  86 N7        30.12S
$$

LSZ147-162-291500-
LAKE SUPERIOR

STATION/POSITION TIME  TEMP    WIND        PRES    WAVE
                       AIR SEA DIR/SP/G            HT/PER
                 (UTC) (F)     (DEG/KT/KT) (MB)    (FT/S)
W MID LAKE BUOY  1250   38 36   30/ 10/ 12 1022.9R   1
DEVILS ISLAND    1300   38      30/  8/  9 1023.3R
SAXON HARBOR     1300   35     190/  2/  5 1021.7R
$$

LMZ867-665-643>646-291500-
LAKE MICHIGAN

STATION/POSITION TIME  TEMP    WIND        PRES    WAVE
                       AIR SEA DIR/SP/G            HT/PER
                 (UTC) (F)     (DEG/KT/KT) (MB)    (FT/S)
CHAMBERS ISLAND  1340   40      10/  8/ 10 1021.3R
N MID LAKE BUOY  1250   39 38   60/  4/  6 1020.9R   1
NORTHPORT PIER   1300   41      70/  8/ 10 1020.7R
ALGOMA LAKESHORE 1315           60/ 12/ 14   N/A
KEWAUNEE LAKESHO 1300   41      20/  8/ 11 1019.4R
SHEBOYGAN LAKESH 1300   39      10/  9/ 11 1020.9R
PORT WASHINGTON  1300   41      30/  7/ 10 1020.7R
S MID LAKE BUOY  1250   40 40   20/  8/ 10 1018.9R   1/ 3
KENOSHA   LAKESH 1300   41     360/  8/ 10 1019.0S
$$

TC  - TEMPERATURE IN CELSIUS
VSB - VISIBILITY IN STATUTE MILES
WCI - WIND CHILL INDEX
HX  - HEAT INDEX





USA.gov is the U.S. government's official web portal to all federal, state and local government web resources and services.